Location: Pel�-Koumbol�
(14.9505°N, 3.0798°W)
Time: 05:17:26
(UTC+00:00)

PSLV R/B - Pass Details

Date: 17 February 2020
Orbit: 505 x 578 km, 97.8° (Epoch: 07 April)

Event Time Altitude Azimuth Distance (km) Brightness Sun altitude
Rises 05:32:00 0° 358° (N) 2,628 7.2 -16.0°
Reaches altitude 10° 05:34:12 10° 348° (NNW) 1,751 6.2 -15.5°
Maximum altitude 05:37:38 34° 283° (WNW) 889 4.3 -14.7°
Drops below altitude 10° 05:41:07 10° 218° (SW) 1,787 6.1 -13.9°
Sets 05:43:24 0° 208° (SSW) 2,691 7.1 -13.3°
